Location: Domont
(49.0278°N, 2.3264°E)
Time: 11:19:57
(UTC+00:00)

Oscar 19 - Visible Passes

Search period start: 25 June 2022 00:00
Search period end: 05 July 2022 00:00
Orbit: 772 x 790 km, 98.8° (Epoch: 24 June)

Date Brightness Start Highest point End Pass type
(mag) Time Alt. Az. Time Alt. Az. Time Alt. Az.
25 Jun 13.1 02:01:20 10° NE 02:03:59 14° E 02:06:38 10° ESE visible
27 Jun 12.5 02:35:18 10° NE 02:39:39 27° E 02:43:59 10° SSE visible
28 Jun 13.1 02:04:23 10° NE 02:07:15 15° E 02:10:06 10° ESE visible
30 Jun 12.4 02:38:28 10° NE 02:42:54 29° E 02:47:19 10° SSE visible
01 Jul 13.1 02:07:27 10° NE 02:10:31 16° E 02:13:34 10° SE visible
03 Jul 12.3 02:41:38 10° NNE 02:46:09 30° E 02:50:39 10° SSE visible
04 Jul 13.0 02:10:32 10° NE 02:13:46 17° E 02:17:01 10° SE visible
